Retour au catalogue

SL-14 DEB

ActifPO
NORAD 25203·DEBRIS·🇷🇺 Russia

Lancé Aug 18, 1987 depuis Plesetsk Cosmodrome

Loading…

Prochains Passages (prochaines 24 heures)

TLE

FraisSource: Space-Track

Époque: Sep 14, 2026, 15:51 UTC

1 25203U 87068AE  26257.66086477  .00000746  00000-0  28741-3 0  9999
2 25203  82.2666 141.9235 0091999  96.5178 264.6490 14.26843454477866

Suivez SL-14 DEB en temps réel avec AllMySat

Download on the App Store